User: anonymous   Login
Location: S�tio Afonso Gruber
(26.1760°S, 49.5250°W)
Time: 09:30:46
(UTC+00:00)
Language:

NANOSAT C BR1 - Orbit

View from above orbital plane
View from above orbital plane
View from above satellite
View from above satellite

Ground track
Ground track

The orbit data is extracted from the following two-line orbital elements,

1 40024U 14033Q   22333.37447349  .00002564  00000-0  25342-3 0  9991
2 40024  98.0044 279.3177 0010206 218.4404 141.6088 14.92811182458579
Epoch (UTC): 29 November 2022 08:59:14
Eccentricity: 0.0010206
inclination: 98.0044°
perigee height: 582 km
apogee height: 596 km
right ascension of ascending node: 279.3177°
argument of perigee: 218.4404°
revolutions per day: 14.92811182
mean anomaly at epoch: 141.6088°
orbit number at epoch: 45857

The dashed part of the orbit path shows where the satellite is in the earth's shadow,  

DLR